Voltar ao catálogo

BREEZE-M DEB

AtivoHEO
NORAD 38609·DEBRIS·🇷🇺 Russia

Lançado Mar 14, 2008 de Baikonur Cosmodrome

Loading…

Próximas Passagens (próximas 24 horas)

TLE

AtualizadoSource: Space-Track

Época: Sep 13, 2026, 04:38 UTC

1 38609U 08011BG  26256.19356376  .00002400  00000-0  19625-1 0  9997
2 38609  48.2627 350.3373 6088483 273.2828  23.3531  3.61894356188065

Acompanhe BREEZE-M DEB em tempo real com AllMySat

Download on the App Store